Location: *
(37.5724°S, 58.0067°E)
Time: 13:53:58
(UTC+00:00)

FENGYUN 1C DEB - Visible Passes

Search period start: 20 April 2021 00:00
Search period end: 30 April 2021 00:00
Orbit: 830 x 1137 km, 100.5° (Epoch: 19 April)

Date Brightness Start Highest point End Pass type
(mag) Time Alt. Az. Time Alt. Az. Time Alt. Az.
20 Apr ? 01:06:57 10° SSE 01:12:33 88° ENE 01:17:55 10° NNW visible
20 Apr ? 23:52:35 10° SE 23:56:05 17° E 23:59:30 10° NE visible
21 Apr ? 01:34:19 10° S 01:39:42 53° WSW 01:44:54 10° NW visible
22 Apr ? 00:18:45 10° SE 00:23:33 30° E 00:28:13 10° NNE visible
22 Apr ? 02:01:57 10° S 02:06:45 31° WSW 02:11:25 10° NW visible
23 Apr ? 00:45:31 10° SSE 00:50:55 54° ENE 00:56:09 10° N visible
24 Apr ? 01:12:38 10° SSE 01:18:09 86° WSW 01:23:32 10° NNW visible
24 Apr ? 23:58:01 10° SE 00:01:44 19° E 00:05:24 10° NE visible
25 Apr ? 01:40:01 10° S 01:45:18 49° WSW 01:50:27 10° NW visible
26 Apr ? 00:24:18 10° SE 00:29:11 33° E 00:33:58 10° NNE visible
26 Apr ? 02:07:42 10° S 02:12:19 29° WSW 02:16:52 10° WNW visible
26 Apr ? 13:54:06 10° WNW 13:56:32 12° W 13:58:56 10° WSW visible
27 Apr ? 00:51:08 10° SSE 00:56:30 59° ENE 01:01:49 10° N visible
27 Apr ? 23:38:48 10° E 23:39:52 11° E 23:40:56 10° ENE visible
28 Apr ? 01:18:18 10° SSE 01:23:44 80° WSW 01:29:08 10° NNW visible
29 Apr ? 00:03:27 10° SE 00:07:23 20° E 00:11:18 10° NE visible
29 Apr ? 01:45:43 10° S 01:50:52 45° WSW 01:55:59 10° NW visible
